Theta_e
346 345 346 344 342 341 339 339 337 337 336 333 333 332 334 334 334 336 334 334 336 337 336 336 335 334 333 334 334 335 335 334 334 334 334 334 333 333 333 333 332 333 332 332 332 332 332 332 330 329 329 329 330 330 329 328 327 327 329 331 331 330 330 331 330 330 330 330 330 329 328 329 328 327 327 328 328 328 327 327 327 327 327 327 326
344 345 345 342 340 339 338 337 336 336 335 334 335 335 336 335 334 336 336 336 336 334 333 335 336 335 334 334 334 334 334 334 334 333 333 333 333 332 332 333 332 332 332 332 332 332 332 331 329 328 328 328 329 329 328 329 328 329 330 330 330 330 330 330 330 330 330 330 329 328 328 328 327 327 326 327 328 328 327 326 327 327 326 326 326
341 342 342 340 338 338 337 336 336 336 336 336 337 335 334 334 333 334 335 336 333 326 324 328 333 335 335 334 335 334 333 333 333 333 333 333 333 332 332 332 332 332 332 332 331 332 331 330 328 327 327 327 328 328 327 329 329 329 330 329 329 330 330 330 330 330 330 329 328 327 327 326 326 326 326 327 328 327 327 326 326 327 326 326 326
339 339 339 337 337 336 336 337 337 338 338 336 335 333 332 332 333 334 334 335 333 326 323 326 331 334 333 334 335 334 333 333 333 333 333 333 333 333 332 332 332 332 332 332 331 331 330 328 326 327 328 328 329 328 327 328 329 329 329 328 327 328 329 330 330 330 329 329 328 326 326 325 326 326 325 325 326 326 326 326 325 325 325 325 324
335 335 335 335 336 337 337 340 339 338 338 336 333 332 333 332 333 334 333 333 332 329 327 330 333 334 332 334 335 334 333 334 333 333 332 333 333 332 332 332 332 332 332 332 332 331 330 328 326 326 328 330 330 329 328 328 328 329 328 327 326 326 327 328 329 329 329 329 328 326 326 326 326 325 325 325 325 326 326 326 325 325 325 324 324
332 331 331 333 336 338 339 340 339 339 339 337 334 334 334 334 334 335 333 331 331 331 332 333 333 332 331 332 333 333 333 334 333 332 332 332 332 332 332 332 332 332 331 332 331 330 329 328 327 326 328 330 329 329 329 328 328 328 328 327 326 326 326 327 328 328 329 329 328 327 326 326 326 325 325 325 325 325 325 326 326 325 325 324 324
333 332 333 335 336 338 339 338 338 340 339 336 335 334 335 336 335 336 334 330 328 330 333 335 334 330 328 328 330 331 333 333 332 332 332 332 332 332 332 332 332 331 331 331 331 330 329 329 329 327 328 330 329 329 329 329 328 328 328 328 327 327 327 327 327 328 328 329 328 327 327 326 327 326 325 325 325 324 325 326 326 326 325 324 324
334 334 335 337 338 337 337 338 339 340 338 336 333 332 334 335 335 336 334 329 328 331 333 334 334 331 326 325 329 331 332 333 332 331 332 332 332 332 332 332 332 331 331 330 330 329 329 329 329 329 329 330 330 329 329 329 328 328 328 328 328 327 326 327 328 328 328 328 328 328 327 326 327 327 326 325 324 324 325 326 325 325 325 325 326
334 335 336 337 337 337 338 339 340 339 338 336 332 328 329 332 332 334 333 330 331 335 334 333 332 330 327 326 328 330 332 333 332 331 331 332 332 331 331 331 332 331 330 329 329 329 329 328 329 330 330 330 330 329 328 327 327 327 327 327 327 327 326 327 329 329 328 327 327 328 328 327 327 328 327 325 324 323 325 326 325 326 325 325 326
333 334 335 336 336 337 338 338 339 339 338 336 331 327 326 328 329 331 332 331 333 335 334 332 330 329 327 326 327 330 333 333 332 332 332 331 331 331 331 331 331 330 329 328 328 328 329 328 329 330 330 329 328 327 327 327 328 327 325 325 326 327 327 328 329 329 329 328 327 327 327 327 327 328 327 325 325 324 324 325 325 326 325 325 326
331 332 333 333 334 335 336 337 337 337 337 334 332 330 328 327 327 328 329 330 332 335 333 329 327 327 327 327 328 330 333 333 333 332 332 331 331 331 330 331 330 328 327 328 328 329 330 329 329 330 330 329 327 327 328 328 328 326 324 325 327 327 328 329 329 329 329 328 327 327 327 327 327 327 326 325 325 324 323 324 325 326 325 325 326
330 331 331 332 332 333 334 335 334 335 334 333 332 332 331 329 328 328 328 329 331 332 331 328 326 326 327 328 329 331 332 333 332 332 332 331 331 330 330 330 328 327 327 329 329 330 330 330 329 329 330 328 327 328 329 328 327 326 325 326 327 327 328 329 329 329 329 328 328 327 327 327 327 326 325 325 325 325 324 324 325 325 325 326 326
330 330 331 331 331 332 332 332 333 333 332 331 330 331 331 330 329 329 330 331 331 331 330 328 327 327 328 328 330 332 332 332 333 332 332 331 331 330 329 329 328 327 329 330 330 330 329 328 328 329 329 328 327 328 328 328 327 326 327 327 327 328 328 329 329 329 328 328 328 327 327 327 327 326 326 325 326 325 324 324 324 325 325 326 325
329 329 329 329 329 330 331 332 333 333 331 330 330 331 331 330 330 330 330 331 331 329 328 328 328 328 328 329 330 332 332 333 333 333 332 331 330 329 329 328 327 327 329 330 330 329 328 327 328 329 329 328 327 327 327 327 328 327 328 328 328 329 329 328 328 328 328 328 328 327 327 327 327 326 326 326 326 326 325 324 324 325 325 325 325
326 327 327 327 327 328 330 331 331 332 331 330 330 330 330 330 331 331 332 331 330 329 329 330 330 329 329 330 331 332 332 333 333 333 332 331 330 328 328 328 327 328 329 329 328 328 327 327 328 329 329 328 327 327 327 327 328 328 328 328 329 329 329 329 329 328 328 328 328 328 328 328 327 327 327 327 327 326 325 325 325 325 325 325 325
325 325 326 326 327 327 328 329 328 328 329 328 329 329 329 331 331 332 332 331 331 331 331 331 331 331 331 331 332 333 333 333 333 332 332 331 330 328 328 327 328 329 330 328 327 327 327 326 328 329 329 328 328 327 328 327 328 328 327 328 328 328 328 328 328 327 328 328 329 329 329 328 327 327 327 327 327 327 326 326 325 324 324 324 324
323 324 324 325 326 326 327 328 328 327 326 327 328 328 328 329 330 331 331 331 330 331 332 331 329 329 329 330 331 332 333 333 332 332 331 331 330 328 327 327 329 330 329 328 328 327 326 326 328 328 328 328 328 328 328 328 328 328 327 327 327 326 327 327 327 327 327 328 329 329 328 328 327 327 327 327 327 327 327 326 325 325 322 321 323
323 324 325 325 325 326 326 327 328 328 327 327 327 327 327 328 329 329 330 330 330 331 331 330 329 329 328 327 327 328 330 332 332 331 331 330 329 327 327 328 330 329 328 328 328 327 326 325 326 326 326 326 327 327 328 328 328 328 327 326 326 325 325 326 326 326 326 327 327 328 328 327 327 327 327 326 326 327 327 326 326 325 323 320 320
322 323 324 325 325 326 326 327 327 327 327 327 327 328 328 327 327 327 328 330 330 330 331 330 330 330 328 326 326 326 328 331 331 330 330 329 327 327 328 329 329 328 327 328 328 327 326 324 324 324 323 325 325 326 327 328 328 328 327 326 325 325 325 325 326 325 325 326 326 327 327 326 326 327 326 326 326 327 327 327 326 325 323 321 320
320 321 322 324 324 324 325 326 326 326 326 326 327 327 327 327 326 326 327 328 329 330 330 329 330 330 329 328 327 327 329 331 331 330 330 328 326 328 329 329 329 326 326 328 328 327 326 324 323 322 322 323 324 324 326 328 328 327 327 326 325 325 325 325 325 325 325 325 326 327 326 326 326 327 326 326 326 327 327 326 325 324 322 320 319
318 319 321 323 323 324 324 324 325 326 326 326 326 326 326 326 325 325 326 327 328 329 328 328 329 330 330 330 329 329 330 331 331 330 329 327 327 329 329 329 328 327 327 328 328 327 327 325 323 321 321 322 322 322 325 326 327 327 327 326 325 325 325 325 325 325 325 325 325 326 326 326 326 327 326 326 326 326 326 324 323 322 321 320 319
316 317 319 321 322 323 323 323 323 324 325 325 325 325 325 325 325 326 326 327 328 329 329 328 329 330 330 330 330 330 331 331 331 330 328 326 327 329 329 329 329 328 328 328 327 328 327 326 324 322 322 322 322 323 324 324 325 326 326 326 325 325 325 326 325 325 324 325 325 326 326 326 326 327 327 326 326 327 326 324 322 321 321 320 320
315 315 317 319 320 320 321 322 322 322 322 322 323 322 323 324 325 327 327 327 329 330 330 330 330 331 330 329 330 331 331 330 329 329 328 326 327 328 329 329 329 328 328 327 327 327 327 325 324 323 321 320 320 322 321 322 323 323 324 325 325 325 325 325 325 324 325 325 325 325 326 326 326 327 326 326 326 327 326 325 324 324 322 321 321
314 314 315 317 318 318 319 319 319 319 319 319 320 320 321 322 324 326 327 328 328 329 329 329 330 330 330 329 329 330 330 329 328 329 328 327 326 327 328 328 328 328 328 327 326 326 326 325 324 323 320 318 319 319 319 320 321 321 322 324 323 323 324 324 324 324 325 325 325 325 326 326 326 327 326 326 326 327 326 325 325 325 323 321 321
312 313 314 315 315 316 316 315 315 316 316 317 317 318 319 320 321 323 324 325 327 328 328 328 328 329 330 330 330 330 329 329 329 329 329 328 327 327 328 328 327 328 328 326 327 327 325 325 324 322 319 319 320 319 318 319 319 320 322 322 321 321 322 322 322 323 325 325 325 325 326 327 326 326 326 326 326 326 325 325 324 324 322 322 322
310 312 313 314 314 314 314 314 315 315 316 316 317 317 318 319 320 321 322 323 324 326 327 328 328 329 329 330 330 330 329 329 329 329 329 329 328 328 328 328 327 328 327 327 327 327 325 325 324 321 320 321 320 319 320 320 320 321 322 321 321 322 322 320 319 322 325 326 326 326 326 327 326 326 326 325 325 325 324 324 323 322 320 320 321
309 310 312 313 313 313 313 314 315 315 316 316 316 317 317 318 319 320 321 322 323 324 325 326 327 328 329 329 330 330 329 329 329 329 329 329 328 328 327 327 328 327 327 327 327 326 325 324 322 321 323 323 321 321 322 322 322 322 322 321 321 322 322 320 321 323 325 326 326 326 326 326 326 326 325 325 323 323 322 322 322 320 319 318 318
308 309 310 312 313 314 314 315 315 315 316 316 315 316 317 318 319 320 320 321 322 323 324 325 326 326 327 328 329 329 329 329 329 329 329 328 328 328 325 326 327 327 327 327 326 326 325 321 321 323 324 323 321 321 322 322 321 321 321 320 321 322 321 321 323 325 325 326 327 327 325 324 325 325 324 322 321 320 320 320 320 319 318 318 318
306 306 307 309 311 313 314 314 315 314 314 314 315 315 317 318 318 319 320 320 321 322 323 324 325 326 326 326 327 328 328 329 329 329 329 328 328 328 325 324 326 327 327 326 325 326 322 316 319 324 325 324 322 321 322 322 321 321 321 320 321 321 322 322 323 324 325 327 326 325 323 322 324 324 322 320 320 320 320 319 319 318 318 318 318
304 304 305 307 309 311 313 313 313 313 313 313 314 315 316 317 318 318 319 320 321 321 321 322 324 324 325 326 326 326 327 328 329 329 329 328 327 327 325 323 325 326 326 325 325 324 319 315 318 322 324 324 323 322 321 322 321 321 321 321 321 321 321 322 322 323 325 326 325 323 322 322 322 321 320 320 320 320 319 319 319 318 318 318 318
303 303 304 306 307 309 311 311 311 312 312 312 313 314 314 316 317 317 318 318 320 320 320 321 323 324 324 325 325 326 326 327 328 328 329 328 327 326 324 323 324 324 324 325 325 322 319 317 317 320 323 324 323 322 322 321 321 321 321 321 321 321 321 322 321 322 324 325 324 323 322 321 321 320 320 320 319 319 319 319 319 319 319 318 318
303 303 304 305 307 308 309 309 310 311 312 312 313 313 313 314 315 315 316 318 318 318 319 321 323 323 324 324 325 325 325 326 327 328 328 328 328 326 323 323 325 324 324 326 324 321 320 319 318 321 323 323 322 322 321 320 320 320 321 321 321 320 321 321 320 322 324 324 323 322 321 321 320 320 320 320 320 319 319 319 319 319 319 319 319
303 303 304 305 306 307 307 308 309 311 311 312 313 313 313 313 313 314 315 317 318 318 319 321 323 323 323 323 324 324 324 325 326 327 328 328 328 327 324 323 325 324 324 325 324 322 320 319 320 322 322 321 321 321 320 319 318 317 319 320 320 320 321 320 320 322 324 323 322 322 321 321 320 320 320 320 320 320 319 318 318 318 319 319 319
302 303 304 305 306 306 307 308 308 310 311 311 312 313 313 313 314 314 315 316 317 318 319 321 323 323 323 323 324 324 324 325 325 326 327 328 327 327 325 324 324 323 324 325 324 322 321 319 319 322 322 321 321 321 321 320 317 316 317 319 320 321 322 321 320 321 322 321 321 321 321 321 321 320 320 320 320 320 319 318 317 316 316 317 318
302 303 304 305 305 306 306 307 308 309 310 311 311 312 313 314 314 314 315 316 317 317 318 320 321 322 322 322 323 324 324 325 325 325 326 328 327 326 325 323 323 324 324 324 323 323 322 320 318 320 322 321 320 320 320 319 317 317 317 319 320 320 322 322 321 321 322 321 321 321 320 320 320 320 320 320 319 319 319 318 316 315 315 316 317
302 302 303 303 304 305 305 306 307 308 309 310 310 311 313 313 314 314 315 316 316 316 317 318 320 320 320 321 322 323 324 324 324 325 326 327 327 325 324 322 323 324 324 324 324 323 322 320 318 319 321 321 320 320 319 318 318 317 317 318 319 319 321 321 321 321 322 322 321 321 320 320 320 320 319 319 318 318 318 317 316 316 316 316 316
301 301 302 302 303 303 304 305 307 307 308 308 309 310 312 313 313 314 315 315 315 316 316 316 317 318 318 319 320 321 322 324 323 324 325 326 325 325 324 322 322 324 323 322 323 323 320 319 318 318 320 320 320 320 319 318 318 318 316 317 319 319 319 320 320 320 321 321 321 320 319 319 319 319 319 318 318 318 318 317 316 315 314 314 313
299 299 300 300 300 301 302 303 305 306 306 307 308 309 310 311 312 313 313 314 314 315 315 315 315 315 316 318 318 318 320 322 322 321 323 325 325 324 322 321 322 323 322 320 321 321 319 318 318 318 319 319 319 319 319 318 319 318 317 317 318 319 319 319 319 320 320 320 320 320 319 320 319 318 318 318 317 317 316 315 315 314 313 313 312
297 298 298 298 299 300 300 301 302 303 304 305 306 307 309 309 309 310 312 313 313 313 314 314 315 315 315 316 316 316 316 317 318 318 319 322 323 322 320 320 320 321 320 319 319 319 318 317 318 318 318 318 318 319 319 319 319 319 319 319 319 319 319 319 319 320 320 319 319 318 318 318 318 317 317 317 316 315 315 315 314 314 313 313 313
297 297 298 298 298 299 299 300 301 301 302 303 304 305 306 305 306 308 310 310 310 309 311 313 314 315 315 315 315 315 314 314 315 315 316 318 321 321 320 319 319 319 319 318 317 317 317 317 317 317 318 318 318 318 318 317 317 318 318 318 319 318 319 319 319 319 318 316 315 315 315 314 314 314 314 315 314 314 314 314 313 313 313 313 313
298 298 298 298 298 299 299 300 300 300 301 301 302 303 303 303 303 305 305 306 306 306 308 311 313 314 314 315 314 314 314 314 313 313 314 316 318 318 318 318 318 319 318 317 316 316 317 316 316 316 317 317 317 317 316 316 316 316 315 316 316 316 317 317 317 317 316 315 315 315 314 314 313 312 312 313 313 314 314 314 314 314 314 314 314
299 299 299 299 299 299 299 299 300 300 300 300 300 301 301 301 301 302 302 302 303 304 305 307 310 312 313 313 314 314 314 314 313 312 312 313 314 314 314 314 315 316 315 313 312 312 313 313 313 314 315 315 315 315 315 315 315 315 315 315 315 315 315 315 315 315 315 314 314 314 313 313 312 312 312 313 313 313 314 314 314 314 313 313 312
300 300 300 300 300 300 300 300 300 300 300 300 300 300 300 300 300 300 300 300 301 301 302 303 305 308 310 311 312 313 314 314 314 313 312 312 312 312 313 312 312 313 312 311 310 310 310 310 311 312 312 312 312 312 312 312 313 313 313 313 313 313 313 313 313 313 312 312 312 312 312 312 312 312 312 312 313 313 313 312 311 309 306 305 303
300 300 300 300 300 300 300 300 300 300 300 300 300 301 300 300 300 299 299 299 300 300 300 300 301 303 306 308 309 311 312 313 313 313 312 312 312 312 312 313 313 313 313 312 312 312 312 312 312 312 311 311 311 311 311 311 311 312 312 312 312 312 312 312 312 312 312 312 312 312 312 313 313 313 313 312 311 310 307 305 303 301 300 299 299
300 300 300 300 300 300 300 300 300 300 300 300 300 300 300 300 300 300 299 299 299 300 300 300 300 300 301 303 305 308 309 310 311 311 311 311 311 311 311 311 312 312 312 311 311 311 311 311 311 310 311 311 311 311 312 312 311 311 311 311 312 312 312 312 313 312 313 313 313 313 312 312 311 310 308 305 303 301 300 300 299 300 300 300 301
299 299 299 299 299 299 299 299 299 299 299 299 299 299 300 300 301 301 301 300 300 300 300 301 301 300 300 300 302 304 306 307 307 308 309 309 310 310 310 310 310 309 309 308 308 309 309 308 308 308 308 309 309 309 309 309 309 309 309 308 307 307 307 308 309 309 309 309 308 307 306 304 303 301 300 299 299 299 300 300 301 301 302 302 303
299 299 299 299 299 299 299 298 298 298 298 299 299 299 299 299 300 300 301 301 301 301 301 301 301 301 301 300 299 301 303 304 305 306 306 307 307 308 308 307 306 306 305 305 305 305 305 305 305 304 304 304 304 304 304 304 304 303 303 302 301 300 301 302 303 302 301 301 300 300 299 299 298 299 299 300 300 301 301 302 302 303 303 303 303
299 299 299 299 299 299 299 299 299 299 298 298 299 299 299 299 300 300 301 301 301 301 301 301 301 301 301 301 300 299 300 300 302 303 304 305 305 305 305 305 304 304 303 303 303 303 303 303 302 302 302 302 302 301 300 300 300 299 298 298 298 298 298 299 299 298 298 298 298 298 298 299 300 300 301 301 301 302 302 302 302 302 301 301 301
299 299 299 299 299 299 299 299 299 299 299 298 299 299 299 299 300 300 300 300 301 301 301 301 301 301 301 300 300 300 299 299 299 299 300 301 302 303 304 304 303 303 303 303 302 302 302 303 303 303 302 302 301 300 298 298 298 298 297 297 297 297 297 297 298 298 298 298 299 299 300 300 301 301 301 301 302 302 301 301 301 301 301 300 300
299 299 299 299 299 299 299 299 299 299 299 299 299 299 299 299 299 300 300 300 300 300 300 300 300 301 301 300 300 300 300 299 298 298 298 298 298 298 299 300 301 302 302 302 302 302 302 302 302 301 301 300 299 298 297 297 297 298 298 298 298 298 298 298 299 299 299 300 300 300 301 301 301 302 301 301 301 301 301 301 301 300 300 299 299
299 299 299 299 299 299 299 299 299 299 299 299 299 299 299 299 299 299 299 299 299 299 299 299 299 300 300 300 300 300 299 299 299 299 299 299 298 298 297 297 297 298 298 299 299 300 300 300 300 299 298 297 297 297 297 297 297 297 297 297 298 298 299 300 300 300 300 301 301 301 301 301 301 301 301 301 301 301 300 300 300 299 298 298 297
Wind_Speed
20 20 21 23 23 22 19 19 18 16 17 18 21 20 19 20 23 30 29 24 28 27 26 29 29 29 30 28 26 25 24 23 23 22 21 20 19 19 20 20 19 18 17 17 18 19 19 18 16 15 16 15 15 14 13 14 14 14 14 14 13 12 12 11 9 10 11 11 10 9 8 8 8 7 7 6 7 7 6 5 6 7 5 4 4
17 19 21 23 23 21 19 17 15 16 18 19 21 20 20 23 26 30 32 30 25 18 20 28 30 30 29 28 25 23 23 23 23 22 21 20 19 19 19 19 18 17 16 16 18 19 19 18 16 16 16 15 15 15 14 15 15 14 15 15 13 11 10 10 10 11 12 12 11 11 10 10 9 8 8 8 8 8 7 5 6 7 6 5 6
14 17 21 22 21 19 16 14 15 17 18 17 18 17 19 23 24 27 31 29 22 18 19 27 31 29 27 25 24 22 22 23 23 21 20 19 18 18 17 17 17 17 16 16 17 18 18 17 15 16 16 16 16 16 16 15 16 15 15 15 13 12 10 10 11 12 12 12 11 11 10 10 9 9 9 9 9 8 7 6 6 7 7 7 8
14 17 21 22 21 19 15 14 16 18 16 16 16 14 17 20 20 21 24 24 22 23 23 26 30 28 26 25 24 22 22 23 23 22 20 19 19 18 17 16 17 18 17 17 17 16 16 17 16 15 15 16 17 17 16 16 16 15 15 15 13 13 12 11 12 12 12 11 11 10 10 10 9 9 10 10 9 8 8 7 6 7 8 8 8
17 20 23 23 21 19 15 14 17 17 15 15 14 11 14 16 14 15 18 19 21 27 28 27 29 28 27 26 24 23 24 24 25 24 22 21 20 19 17 16 17 17 16 16 16 15 15 16 17 15 14 16 17 17 16 16 17 16 15 15 13 11 11 11 13 14 12 11 10 8 8 8 9 11 11 8 8 7 8 8 8 9 9 8 8
19 22 23 22 20 18 15 14 16 15 14 14 12 10 13 14 12 14 18 19 22 30 32 28 28 27 25 24 25 26 26 26 26 25 23 22 20 18 17 17 17 17 16 16 16 15 15 15 17 16 15 16 17 16 16 17 18 17 15 14 13 11 9 11 13 15 14 12 11 9 6 5 7 10 11 8 7 7 8 8 9 10 9 8 8
18 22 21 20 20 17 13 12 13 13 13 13 12 12 14 16 15 17 21 21 24 29 30 27 26 26 24 24 26 26 26 26 24 23 22 21 18 17 18 17 16 16 17 17 17 16 15 15 16 16 15 15 16 17 17 18 18 16 14 13 12 11 10 11 12 14 16 15 13 12 10 6 4 5 10 9 8 9 9 8 9 10 10 9 8
15 20 20 20 18 13 10 10 11 12 12 13 11 9 12 15 16 19 23 22 24 26 25 26 27 26 27 27 26 26 26 24 22 21 21 20 17 17 17 17 17 16 17 18 18 17 16 15 16 16 16 16 17 18 18 18 16 14 14 13 12 12 11 11 11 13 16 15 15 15 13 10 6 5 7 9 8 11 12 10 10 10 10 9 9
10 14 16 15 12 10 10 12 13 13 13 14 11 7 8 12 13 17 23 23 24 25 25 27 28 28 29 27 26 26 25 23 21 20 20 19 18 17 18 18 18 18 17 18 18 18 17 16 17 17 17 17 17 18 19 17 15 15 15 14 12 12 12 11 11 13 14 13 14 15 14 13 10 7 8 11 10 10 14 14 14 12 11 10 10
7 9 13 13 13 15 15 15 16 15 14 14 11 10 11 13 14 18 24 25 24 26 27 28 26 26 29 28 26 25 25 24 22 20 18 19 19 18 18 19 20 19 18 19 18 18 18 17 17 17 18 18 18 19 19 17 15 15 14 13 12 12 12 12 12 12 14 13 13 14 14 13 11 10 11 14 12 11 14 15 16 16 14 12 11
7 8 10 11 12 15 16 16 16 16 14 13 13 13 14 16 17 20 25 28 27 26 27 27 25 24 25 27 25 25 25 24 22 20 18 18 19 19 18 19 20 19 18 19 18 18 18 17 17 18 19 19 18 18 18 17 16 14 13 13 13 13 12 12 12 13 14 14 14 13 12 12 11 11 12 12 13 13 13 14 17 16 14 12 11
9 7 5 4 5 7 10 12 12 13 12 12 15 17 18 20 20 22 26 29 29 29 27 25 23 23 23 24 25 25 26 25 22 19 17 17 18 19 19 20 20 19 18 19 19 19 19 18 17 18 19 19 17 17 16 16 16 16 15 15 15 14 14 13 13 14 14 14 15 14 12 12 11 12 12 11 11 11 12 13 16 16 13 11 11
12 10 8 6 4 1 3 6 8 9 10 13 16 17 19 22 23 24 28 31 31 30 29 27 24 23 23 24 25 25 26 26 22 18 16 17 18 20 21 21 21 19 19 20 20 20 20 19 19 19 19 19 17 16 16 16 17 17 16 17 16 16 15 15 14 14 13 14 14 14 13 12 11 11 12 11 10 10 11 13 16 15 13 13 13
15 13 11 10 8 6 4 7 9 11 12 15 16 14 16 20 23 25 27 29 30 28 27 27 27 27 26 26 25 24 25 26 22 17 16 17 18 20 22 21 21 20 19 20 20 20 20 20 19 18 18 18 17 17 16 16 17 16 16 16 16 16 15 15 14 14 13 13 14 14 13 12 11 12 13 11 10 11 11 13 16 16 14 14 13
17 15 13 11 9 8 5 4 7 11 14 16 15 14 15 17 21 24 25 25 26 26 25 24 25 27 27 27 26 25 24 24 21 17 16 18 18 20 22 22 21 21 20 20 20 19 19 19 18 17 17 17 17 17 17 17 17 16 16 16 15 15 15 15 14 14 14 13 13 13 13 13 12 12 13 11 10 10 9 12 17 16 15 15 14
19 18 17 15 12 10 8 5 4 3 9 14 16 17 18 18 19 21 22 21 21 22 21 21 21 23 24 25 25 24 23 22 20 17 17 18 18 20 22 22 22 22 21 21 19 17 17 18 18 17 17 17 17 17 17 17 17 16 16 16 15 16 16 15 15 15 14 13 12 13 13 13 12 13 13 11 10 10 9 11 15 15 13 14 16
20 19 19 17 15 12 9 7 6 5 4 6 10 14 16 17 17 18 17 16 18 20 18 18 18 19 21 22 21 23 23 21 20 18 18 18 19 20 22 22 23 23 22 20 18 16 17 18 18 18 17 17 17 17 17 16 16 16 16 16 16 16 16 16 16 15 15 14 13 13 13 13 13 13 13 11 11 11 9 10 14 16 12 9 13
18 17 17 15 14 13 11 8 7 7 7 7 7 10 12 14 15 15 16 16 17 21 22 18 13 14 16 17 17 20 23 23 21 20 19 19 20 22 23 24 25 23 20 18 16 16 17 19 19 19 18 17 16 17 16 16 16 16 16 16 16 16 17 17 17 16 16 15 14 14 14 14 14 14 12 12 12 11 10 11 13 16 15 9 6
17 16 16 15 14 12 11 9 8 8 9 10 10 11 12 14 15 13 17 20 18 20 22 17 11 12 14 16 15 18 22 24 22 21 21 21 22 23 24 26 25 22 19 17 17 17 18 18 18 18 18 18 17 17 16 16 16 16 16 16 16 16 17 17 17 16 15 15 15 14 15 14 14 14 13 13 13 12 10 12 13 15 16 10 3
18 17 15 14 13 12 10 9 8 8 10 11 10 11 12 13 14 10 11 17 17 16 16 13 12 14 16 17 16 16 20 23 21 21 22 22 23 24 26 26 24 22 20 18 17 18 18 17 18 18 18 18 18 18 17 16 16 16 15 15 16 17 17 17 16 15 15 15 15 15 14 14 14 14 14 13 12 12 11 12 13 14 16 12 3
17 16 15 12 11 11 10 8 6 5 5 6 7 8 9 10 9 5 6 11 13 10 9 11 14 16 18 18 16 15 18 20 20 20 22 22 23 25 27 25 23 23 22 19 18 19 18 18 18 18 18 19 19 19 18 17 16 16 16 16 16 17 16 16 15 15 15 15 15 15 14 14 15 15 15 13 12 13 12 11 12 14 16 12 6
16 16 15 12 10 11 10 9 8 6 5 5 6 7 7 8 7 6 7 7 8 7 7 11 15 17 17 16 14 14 17 19 19 21 23 23 24 26 27 25 24 23 21 18 18 20 19 19 19 18 18 18 19 19 19 18 17 17 16 16 17 17 16 15 15 15 15 16 15 14 14 14 16 16 15 15 14 14 14 12 12 14 15 12 9
14 14 14 12 11 11 10 10 11 10 10 9 9 9 9 9 7 8 9 8 8 8 10 13 15 17 16 14 13 14 17 19 20 23 25 25 26 28 26 24 23 22 20 19 20 21 20 20 19 18 18 18 19 19 19 18 18 17 17 17 17 16 15 15 15 14 15 16 15 15 15 15 16 17 17 16 16 16 15 14 13 13 13 13 12
13 13 13 12 12 11 11 13 14 14 14 14 14 13 12 11 9 8 9 10 11 12 13 15 18 18 17 15 16 16 17 20 22 26 27 27 27 27 25 23 23 21 20 20 21 21 20 20 19 18 18 19 19 19 19 19 19 17 17 16 15 15 15 13 13 13 14 15 16 16 16 15 16 18 17 16 16 16 16 15 14 14 14 14 14
14 14 14 14 13 14 15 16 17 17 18 18 18 17 16 16 14 11 10 9 10 13 16 17 19 20 18 17 18 17 18 21 23 26 28 28 27 27 26 24 23 23 22 21 21 21 20 20 19 18 19 20 19 18 18 18 18 17 16 16 14 14 12 10 10 11 12 14 15 16 16 16 17 17 16 15 15 15 16 15 14 14 14 14 15
16 16 15 15 15 16 17 18 19 20 20 20 20 19 20 19 18 16 14 11 9 11 15 18 19 20 20 19 18 18 19 21 23 26 28 29 28 27 27 25 25 25 23 21 22 22 22 21 18 18 20 20 19 18 18 17 17 17 16 15 14 12 10 8 7 9 11 13 15 17 18 17 16 16 15 13 12 12 14 14 14 13 12 12 14
15 16 15 15 16 16 18 18 19 20 20 21 21 21 22 21 20 19 18 15 11 10 11 14 16 17 19 20 18 18 20 21 23 26 29 30 29 28 26 25 26 26 24 22 23 23 23 20 19 20 22 20 20 20 18 17 17 16 15 14 14 12 9 7 7 9 11 13 16 19 19 18 17 15 13 11 10 10 12 13 12 12 11 10 10
14 15 16 16 16 17 17 18 19 19 20 21 22 22 23 23 23 21 21 18 13 10 11 11 11 11 14 17 18 20 21 21 22 26 30 31 30 29 27 27 29 29 25 23 24 24 23 21 22 24 24 22 21 21 19 17 16 15 14 14 15 12 10 8 8 9 10 11 14 16 16 16 16 14 11 10 9 10 12 12 12 11 11 9 8
15 16 16 16 17 17 17 17 18 20 22 22 23 23 23 24 25 25 24 22 17 12 12 12 11 10 10 12 15 18 21 22 23 28 32 32 31 30 28 29 32 31 27 24 25 24 22 22 26 27 25 24 23 22 20 18 16 15 15 15 15 13 11 9 9 10 11 11 11 12 13 14 14 13 10 9 8 7 9 10 10 10 9 8 8
14 16 16 16 16 16 16 16 19 22 24 24 24 25 24 24 25 27 28 26 22 18 17 16 13 11 10 11 12 14 18 20 24 30 34 33 32 31 29 28 30 31 29 27 25 23 21 23 27 28 27 26 24 23 21 19 17 17 16 16 15 13 12 11 9 10 11 12 12 12 12 14 14 13 12 10 8 7 7 7 9 10 8 8 9
14 15 16 15 15 15 16 17 19 22 25 25 25 24 24 24 24 27 29 29 25 22 20 20 18 13 10 11 12 12 13 16 21 30 35 33 32 31 29 28 30 32 31 29 26 24 22 23 27 29 28 27 25 23 21 20 20 19 18 16 15 14 13 12 10 9 10 13 15 14 14 15 15 14 13 11 9 8 8 8 9 9 9 8 9
14 15 15 16 17 17 17 18 20 21 24 24 24 24 25 25 26 27 29 29 28 24 21 20 19 17 14 12 12 12 12 14 18 27 34 33 32 30 28 28 31 33 32 29 27 26 24 23 26 28 27 26 25 23 20 19 19 20 20 18 16 15 15 13 10 10 12 14 15 15 14 15 15 14 12 11 10 9 9 9 10 10 9 8 8
13 14 15 16 17 18 18 18 19 20 21 22 23 23 25 26 26 26 27 28 28 26 22 20 19 18 17 15 13 13 13 12 15 25 32 33 32 31 29 30 33 34 33 30 28 27 25 24 25 26 24 24 24 22 19 16 16 18 21 19 17 17 17 14 11 11 13 14 14 14 15 15 14 13 12 11 10 9 9 10 10 11 11 10 10
12 13 15 16 16 17 16 17 18 18 19 19 20 21 22 23 24 24 24 25 25 23 20 17 17 18 18 17 15 12 13 12 15 23 30 31 32 32 32 33 33 34 33 31 29 29 26 24 26 26 23 23 23 21 20 16 14 16 19 19 17 18 18 16 15 14 14 14 14 14 15 15 14 13 11 10 9 9 9 9 8 9 10 10 11
13 14 14 15 16 17 16 17 18 18 17 18 19 19 19 21 22 23 22 21 21 21 19 16 16 17 16 16 14 9 12 13 16 22 28 30 33 34 33 34 34 34 33 31 30 29 28 26 26 26 23 22 21 21 21 18 15 15 18 18 17 18 19 19 18 17 17 16 15 15 15 14 13 12 11 10 9 8 9 8 8 7 8 8 8
14 14 15 15 15 16 16 17 17 16 17 18 18 18 17 18 20 21 19 18 19 20 21 19 17 17 15 13 11 8 12 15 17 23 28 30 33 35 33 33 35 35 34 34 32 30 28 27 27 26 25 23 22 22 22 20 17 16 17 18 18 18 20 20 19 19 20 18 18 17 16 15 14 14 13 12 10 8 8 8 7 6 6 6 6
13 13 14 14 14 14 15 15 15 16 16 17 17 17 15 15 17 19 18 18 18 20 23 22 20 19 16 12 9 6 10 15 18 23 28 31 32 34 33 31 33 35 34 34 34 30 28 27 26 26 25 24 23 24 23 22 19 16 17 19 19 18 19 19 19 20 20 20 19 18 16 15 15 14 14 14 12 10 8 8 7 7 7 8 9
13 13 13 14 14 14 14 14 14 15 15 15 16 15 14 14 15 16 17 18 18 19 20 22 22 22 19 15 9 3 6 13 16 19 26 29 30 31 32 32 33 35 33 31 31 29 27 26 26 26 26 25 25 24 23 22 21 17 17 19 19 19 19 19 20 21 21 21 20 18 16 15 14 13 14 14 12 11 11 11 11 12 13 13 13
14 14 14 14 14 13 13 14 15 15 15 14 15 14 14 15 16 16 16 17 18 18 18 18 20 21 21 20 15 10 4 5 13 18 23 26 27 27 30 31 32 32 30 28 28 28 28 28 27 27 26 25 25 24 23 21 20 18 17 18 19 19 20 21 22 23 22 19 18 16 15 14 12 11 12 13 12 13 15 15 16 16 17 17 16
14 15 14 14 13 13 14 16 16 16 15 14 13 13 14 16 17 17 17 17 18 18 16 14 13 16 19 22 21 20 18 12 7 12 20 25 26 25 24 23 24 26 27 28 28 29 29 29 28 27 27 26 25 25 23 20 19 18 17 17 18 19 21 22 22 22 19 13 9 8 8 7 7 9 12 13 13 13 15 16 17 17 17 18 18
13 13 13 13 13 14 16 16 16 15 15 14 14 14 15 17 17 18 19 19 18 17 16 13 10 10 13 16 18 20 22 22 18 12 13 19 23 24 22 20 21 25 28 29 30 31 31 30 28 26 26 26 25 24 23 20 19 18 16 16 16 16 17 18 16 16 16 12 9 8 8 10 10 10 11 13 13 13 14 16 17 18 19 21 22
11 11 11 11 12 13 14 14 14 15 15 15 16 16 17 18 19 20 19 18 17 17 17 15 12 10 10 12 13 14 16 18 19 16 14 13 14 16 19 21 23 26 26 24 23 24 25 25 25 24 23 23 22 21 21 20 18 17 15 15 14 13 15 16 14 14 16 16 14 13 15 17 17 15 14 15 15 15 16 17 18 19 20 21 22
12 12 12 12 13 13 13 13 14 14 15 16 17 18 18 19 20 20 18 17 17 17 17 17 16 13 12 11 11 11 12 14 14 12 11 12 12 11 12 14 16 18 19 16 14 15 16 17 18 17 17 17 17 16 16 15 14 13 12 11 12 13 14 14 13 11 11 12 13 15 17 18 18 17 17 17 17 17 17 17 18 17 17 17 17
12 13 13 14 15 15 15 15 14 14 14 15 16 17 18 19 19 17 15 17 18 18 18 19 19 17 15 14 12 10 9 10 11 10 8 9 9 7 6 6 7 9 11 11 10 10 11 12 13 13 13 13 13 12 11 11 10 10 10 10 11 11 11 12 11 10 10 11 12 14 15 16 16 16 17 16 16 16 16 15 14 13 12 12 11
11 12 13 14 15 16 17 17 17 16 16 15 15 15 16 17 17 14 13 13 15 17 20 22 23 22 19 16 14 13 11 9 8 7 7 7 7 6 5 4 3 4 5 6 7 7 6 7 8 8 8 8 8 8 8 9 10 11 12 13 13 12 11 11 11 11 12 13 13 14 14 15 15 15 15 14 13 13 12 10 9 9 8 8 8
13 13 13 14 15 16 17 18 18 18 18 18 17 16 16 15 13 13 13 12 11 13 17 20 23 25 23 20 17 15 14 13 11 9 8 9 8 7 7 7 6 6 6 6 6 6 6 6 6 6 5 5 4 5 7 9 11 12 13 13 12 11 10 10 11 11 12 12 13 13 13 13 13 12 11 11 9 8 7 6 6 5 5 6 6
13 13 13 14 15 15 17 18 18 17 17 17 17 18 18 15 12 11 11 12 12 14 15 17 19 22 23 22 20 18 16 14 13 12 11 11 11 10 10 12 12 11 11 11 11 10 9 8 7 7 7 6 5 4 3 5 5 6 7 8 8 8 9 10 10 11 11 11 11 11 11 11 10 9 8 7 6 6 5 5 4 5 5 5 6
10 11 11 12 13 14 15 15 16 16 16 15 16 17 17 17 15 13 10 9 10 13 15 16 17 19 21 21 20 19 18 16 14 12 12 12 12 11 12 13 12 10 10 11 11 11 10 9 9 9 8 6 5 3 2 2 2 2 3 5 6 7 8 8 8 9 9 9 9 9 8 8 8 7 7 7 6 5 5 5 5 5 5 5 6
8 9 9 10 11 13 14 13 14 15 15 14 16 18 17 16 16 17 15 12 11 11 12 13 15 17 19 19 19 18 18 17 15 13 13 13 14 12 11 11 11 11 10 10 9 9 8 7 7 7 6 4 3 3 3 2 3 4 4 4 5 5 6 6 7 7 7 8 8 8 8 8 8 7 7 6 6 5 5 4 4 4 5 6 7
9 9 9 8 10 12 13 13 13 14 14 14 15 18 19 16 14 14 15 15 15 15 15 15 13 13 14 16 17 18 17 17 17 16 15 15 15 15 13 12 11 11 10 8 7 6 5 3 3 4 3 3 3 3 3 4 4 5 6 5 5 6 6 6 7 7 7 7 8 8 9 8 8 7 7 6 6 5 5 5 5 6 7 8 8
10 10 9 8 8 9 10 11 12 13 14 13 13 15 16 16 15 14 14 15 16 17 18 18 17 14 12 11 12 14 15 15 15 16 15 15 15 15 16 15 14 12 10 8 7 6 5 4 2 2 2 2 3 4 5 5 5 6 7 7 7 8 8 8 8 7 7 7 8 8 8 8 8 8 7 7 7 6 6 6 7 7 8 8 8
Wind_Direction
216 221 223 219 215 211 209 207 201 197 200 209 215 221 225 220 220 223 225 225 215 216 226 225 221 216 218 223 225 230 230 227 229 231 232 234 230 222 216 216 218 219 217 213 214 214 213 215 216 216 215 214 217 220 218 214 214 216 212 202 199 200 192 186 191 198 195 187 184 185 185 187 192 199 199 206 224 226 223 239 237 215 201 204 200
215 222 224 218 211 206 204 201 194 197 204 210 216 220 223 221 223 224 224 219 204 207 228 227 225 219 217 223 224 227 230 228 230 231 233 234 229 222 218 217 218 219 220 218 215 214 214 217 219 218 216 215 217 218 216 214 213 212 208 200 193 198 199 191 191 193 193 195 191 178 174 180 190 198 196 204 219 219 215 220 225 214 205 203 197
215 223 222 213 205 200 200 196 197 207 213 216 217 219 222 222 223 223 227 227 206 196 214 215 217 217 215 221 223 225 231 231 232 234 235 234 230 227 223 221 221 221 220 216 215 216 216 220 221 219 219 218 218 217 214 211 211 208 205 203 192 187 194 194 194 197 196 200 192 174 176 185 190 201 202 204 208 207 207 208 209 202 196 197 194
211 216 215 207 201 198 195 193 203 214 219 219 216 217 221 220 223 224 230 236 217 205 212 208 206 207 207 215 221 225 231 232 235 235 232 231 231 230 227 223 224 228 225 216 214 216 217 220 218 217 220 220 219 218 218 216 214 210 204 203 198 189 189 186 191 200 201 203 196 180 181 187 193 203 205 207 206 203 207 208 200 189 188 195 195
207 206 207 204 199 197 196 196 208 219 220 218 220 226 226 221 225 227 229 237 224 212 214 210 202 198 201 210 217 222 228 231 232 231 227 226 228 227 225 222 225 231 228 218 215 215 216 216 215 217 220 219 216 219 224 223 218 214 207 201 199 200 198 189 190 197 199 208 216 203 186 193 209 207 201 208 207 199 202 204 199 189 189 199 200
204 203 202 199 196 199 202 203 210 219 219 218 227 239 238 231 231 229 228 236 227 215 214 212 201 194 197 207 214 218 222 226 228 226 226 225 223 221 221 222 226 228 224 218 215 216 215 212 212 217 219 217 218 221 221 219 214 210 207 203 199 203 209 205 201 198 196 202 217 228 229 236 234 209 199 199 192 190 195 197 197 193 194 203 203
198 198 197 196 201 203 197 197 208 217 215 211 220 233 235 235 238 236 233 231 220 213 213 211 201 193 194 204 212 215 219 223 225 226 230 231 223 218 219 220 223 223 218 213 213 214 213 211 214 217 216 214 217 218 214 212 211 206 204 205 201 201 206 214 214 205 200 199 206 220 234 249 270 230 212 204 190 188 192 192 191 192 196 201 203
196 198 202 206 209 202 185 190 199 205 207 204 205 216 226 230 237 239 238 230 216 211 209 205 201 198 200 205 209 213 218 221 222 224 232 234 225 218 218 217 217 217 214 210 210 211 209 209 212 213 210 209 210 211 209 207 206 203 202 203 203 206 207 213 218 214 208 204 203 212 225 233 257 274 242 231 215 189 187 193 186 189 199 195 193
197 204 208 210 207 196 198 206 202 201 208 207 198 188 207 219 220 227 234 229 215 209 205 201 202 206 210 211 210 213 218 221 222 224 228 229 224 219 218 216 213 213 211 209 208 208 206 205 206 205 204 204 204 204 205 204 203 203 202 199 200 205 209 212 216 220 220 216 209 211 221 229 243 258 234 232 235 202 193 196 185 186 198 191 186
160 180 187 191 195 197 205 210 208 212 213 209 201 183 187 200 200 210 223 223 215 210 207 205 209 214 216 218 218 218 220 222 225 227 226 224 222 219 219 216 213 213 211 206 205 204 203 203 202 200 199 200 200 201 201 202 203 205 203 201 203 205 210 213 212 218 225 228 221 216 221 226 234 241 222 220 231 223 211 200 186 187 194 189 186
107 141 160 175 190 200 206 207 212 219 214 206 208 199 188 190 197 206 214 218 218 214 212 213 219 224 224 226 228 227 225 226 228 228 225 224 222 219 218 216 213 214 212 206 203 201 198 199 198 196 197 198 199 199 200 202 203 205 205 205 207 211 214 214 213 215 223 232 231 225 226 232 243 251 239 230 230 227 222 205 189 190 195 193 187
80 94 110 139 177 203 208 211 221 227 215 201 206 209 201 195 198 205 212 217 218 216 218 222 227 233 235 234 233 233 232 231 232 231 228 226 223 218 216 214 212 212 210 204 200 196 193 195 196 194 196 197 198 200 202 204 204 204 207 208 210 215 216 216 217 215 218 228 232 231 231 237 252 260 255 254 246 235 233 213 190 186 192 192 185
59 62 60 60 50 333 253 250 252 245 224 205 204 212 214 208 206 210 213 216 216 216 219 225 231 236 239 239 237 236 237 236 233 233 231 228 223 216 212 212 213 210 205 200 197 194 194 196 197 196 197 196 196 200 201 202 203 204 207 209 212 215 216 217 220 220 220 224 229 233 236 236 246 251 248 255 250 233 231 217 191 183 189 187 180
49 49 47 43 31 10 320 276 260 247 225 207 208 224 229 221 217 218 219 221 221 220 223 228 235 239 240 243 240 238 241 240 233 229 229 226 222 217 212 212 214 211 207 203 199 197 197 198 198 197 196 195 195 199 200 200 203 205 207 209 212 214 216 217 220 223 224 224 228 234 237 237 238 239 239 247 243 226 225 217 192 179 185 188 181
52 55 52 46 33 23 6 305 266 246 226 214 220 239 243 231 223 222 224 228 229 229 232 235 239 241 242 246 246 242 241 241 235 228 224 222 221 219 213 214 215 210 209 208 203 201 199 197 198 197 196 197 197 200 201 202 202 203 206 208 211 211 213 216 218 222 224 224 229 233 236 236 233 232 233 238 238 229 228 220 201 184 180 186 187
59 63 64 61 54 46 39 23 2 283 238 233 236 244 249 243 232 228 231 236 238 237 238 241 244 244 242 244 249 248 243 241 237 230 223 220 221 219 214 214 213 208 208 208 205 203 201 198 199 199 198 199 201 203 203 204 203 203 205 208 210 211 213 216 217 219 220 221 227 232 232 231 231 232 231 233 232 227 227 222 215 210 198 188 188
57 61 64 64 63 59 50 30 15 9 334 282 261 260 266 259 246 239 241 247 250 248 243 241 248 253 248 243 246 248 244 241 237 230 224 220 217 215 213 211 208 204 205 206 208 207 202 201 201 201 200 200 203 205 204 207 207 206 208 210 213 213 214 217 216 216 217 217 222 228 228 226 229 231 231 231 226 220 224 222 221 228 231 217 199
54 55 56 55 54 51 44 31 8 353 341 329 311 298 296 289 274 258 250 254 260 259 250 240 247 259 248 234 236 242 237 231 229 225 220 215 211 208 208 207 205 204 203 205 211 210 202 201 202 202 202 200 201 204 204 207 209 209 210 214 217 217 216 216 215 215 217 217 219 222 223 223 224 226 228 229 220 215 223 224 225 229 230 245 253
49 50 50 49 49 46 43 34 15 355 339 332 324 313 305 303 306 290 260 254 262 263 251 238 240 251 236 221 230 240 230 222 221 219 213 207 204 203 204 206 205 204 204 206 212 211 204 202 202 203 203 201 201 205 205 205 207 209 212 215 217 215 215 216 215 216 217 217 216 216 218 219 218 219 222 221 214 213 224 223 224 229 222 228 291
43 46 46 45 46 45 43 35 19 360 344 335 326 314 305 305 314 309 265 254 256 257 250 242 244 246 235 228 237 240 226 218 216 215 209 203 202 203 204 205 204 203 204 207 215 215 209 203 201 203 204 202 201 204 205 204 205 208 212 216 215 212 214 216 215 215 215 213 211 211 214 215 215 217 219 220 213 211 220 221 222 225 217 213 213
41 43 41 38 36 34 34 34 29 7 341 334 327 315 308 313 318 309 274 258 245 241 256 263 258 250 242 238 243 240 222 215 215 213 206 201 201 203 204 206 205 205 205 208 216 219 214 210 206 205 204 203 202 203 204 204 204 205 209 212 211 210 214 215 213 212 213 211 210 210 211 211 214 218 218 218 214 208 209 211 216 216 210 210 222
37 40 41 37 33 28 23 24 26 22 13 359 351 341 329 330 324 300 296 281 245 229 246 256 255 253 248 242 243 235 217 211 215 213 206 201 200 202 205 208 207 206 205 208 216 219 217 216 211 204 204 203 202 202 203 204 203 204 208 210 209 210 213 214 212 213 214 213 210 208 208 209 212 216 218 214 208 205 203 200 204 208 206 212 226
34 35 37 37 34 31 23 18 15 13 12 5 359 357 351 346 330 301 300 301 281 260 247 244 250 254 252 246 241 228 213 210 212 211 207 203 202 203 205 206 206 205 204 208 215 216 214 214 210 204 204 204 201 201 202 203 203 204 208 208 207 209 212 214 215 215 215 214 209 204 205 208 210 214 217 214 206 204 202 200 204 209 212 218 227
37 32 32 31 30 27 23 17 13 12 10 8 5 1 356 354 347 323 305 298 288 275 263 257 255 255 253 247 242 232 219 216 212 208 208 207 205 205 202 201 204 204 204 207 209 209 207 206 206 205 204 201 198 198 199 201 202 203 204 205 204 205 208 212 216 216 215 212 207 202 202 206 211 215 217 216 214 212 205 202 208 215 219 225 233
37 35 30 26 23 21 21 21 19 18 15 13 12 10 7 3 359 350 332 309 289 274 265 260 256 254 252 247 244 239 230 224 216 209 209 209 206 202 199 199 202 203 205 206 202 203 203 201 201 202 200 195 193 195 196 197 198 197 197 197 196 196 195 197 207 213 214 214 211 206 204 205 212 217 219 218 214 211 204 200 205 213 221 234 243
34 35 33 29 25 23 23 23 22 21 18 16 14 12 11 8 4 360 350 336 311 282 264 256 253 251 249 247 245 242 240 235 225 215 212 210 204 199 197 199 203 204 203 203 203 203 199 197 197 197 195 191 186 186 186 185 186 185 186 187 187 186 183 185 201 209 212 213 211 208 204 204 211 218 218 211 202 198 199 199 204 212 223 239 249
32 34 33 32 29 26 24 23 22 22 20 17 14 10 8 5 3 0 355 349 335 312 286 266 256 252 250 249 246 244 242 238 229 219 213 208 202 198 197 200 206 206 202 202 205 202 196 195 196 193 190 187 183 180 180 181 183 184 187 190 189 187 184 189 202 206 211 215 213 209 205 202 203 206 202 196 192 197 200 201 209 218 223 232 240
30 32 32 32 32 28 26 23 20 19 18 16 13 11 11 7 3 1 357 353 343 328 320 303 283 270 262 255 250 246 241 236 229 220 212 205 201 198 196 201 206 204 202 204 203 198 195 195 193 189 187 187 184 181 181 185 187 189 193 193 189 185 181 186 198 202 209 218 215 211 211 204 193 184 183 187 190 197 202 203 208 213 216 220 223
23 25 27 31 32 30 28 24 20 18 16 15 14 12 11 9 6 5 2 357 354 345 338 329 310 293 285 272 257 246 241 237 228 219 211 205 202 200 198 203 206 202 200 203 199 196 195 190 187 187 188 188 187 184 185 189 189 189 191 189 186 183 180 186 197 199 200 207 208 208 210 200 180 165 171 183 185 191 200 206 206 204 208 214 213
17 18 21 27 31 31 28 23 20 19 15 14 13 10 7 4 3 5 3 359 355 350 346 342 329 307 298 292 275 256 246 240 226 216 212 206 203 202 201 204 207 202 197 196 193 190 188 185 185 188 189 189 188 187 188 192 192 190 189 189 189 187 187 193 198 199 199 198 194 191 186 177 164 160 168 176 182 187 185 188 193 193 197 203 204
16 17 20 23 27 29 27 22 22 19 15 14 11 5 0 358 358 1 1 357 351 345 343 344 340 328 311 297 290 278 262 248 229 216 212 208 204 200 198 203 208 205 196 190 189 185 182 182 185 188 190 190 190 189 190 195 198 195 191 193 196 194 193 197 197 194 191 182 174 168 161 157 158 164 169 172 177 181 176 176 184 186 188 192 197
18 17 19 21 22 23 22 21 21 18 15 13 9 2 358 356 355 356 355 353 350 347 343 341 340 337 327 308 296 288 273 259 238 218 210 208 202 198 197 200 206 205 195 187 188 186 181 182 184 186 188 189 190 191 191 195 201 200 198 198 201 199 194 193 195 192 184 173 166 164 162 163 167 171 173 176 179 178 179 183 187 190 195 201 205
23 19 20 21 20 21 20 20 20 18 16 12 6 3 1 359 357 355 352 351 351 350 346 339 335 336 334 325 309 289 276 274 250 223 212 205 200 198 198 198 202 205 195 186 188 188 183 183 185 186 188 187 187 190 190 191 197 202 202 201 201 199 193 189 191 191 187 181 177 179 180 178 179 181 182 186 192 194 193 191 194 198 203 212 220
30 26 24 21 20 20 20 21 23 22 17 12 8 7 4 2 359 356 353 353 354 354 351 342 332 332 334 330 320 288 265 272 256 226 211 203 198 197 196 196 201 202 194 186 189 189 185 185 187 187 188 185 185 189 190 189 193 194 194 194 195 194 192 190 189 187 187 187 188 192 194 193 191 190 191 195 203 211 210 207 210 211 210 214 223
29 29 27 24 23 21 20 23 25 24 19 14 12 9 6 4 0 354 354 358 360 1 4 359 345 338 334 328 322 284 238 244 247 228 209 200 197 194 193 197 199 196 190 188 190 191 190 189 189 189 189 186 185 188 188 188 192 191 188 188 190 193 195 196 195 194 194 193 194 197 198 198 198 197 202 209 212 218 222 221 222 223 219 222 230
33 31 28 29 29 26 26 25 23 25 23 19 17 11 7 9 4 357 359 6 8 11 16 16 6 356 349 336 325 288 231 221 223 217 205 197 195 192 194 199 194 188 188 190 190 192 193 191 190 191 191 189 186 186 187 188 192 196 194 192 191 191 195 197 197 198 199 199 199 200 201 203 205 205 210 213 208 206 215 218 216 221 230 243 262
45 42 39 40 38 35 36 31 25 27 27 24 22 14 10 15 11 2 4 11 17 20 23 25 24 19 12 359 336 291 229 210 206 205 199 196 196 192 193 196 190 185 189 189 186 190 191 189 191 192 192 191 187 185 188 190 193 197 198 196 195 195 197 198 197 197 198 198 198 198 200 204 205 206 208 207 199 197 207 217 222 235 252 266 279
58 56 54 53 49 46 45 38 32 34 32 29 26 15 8 19 21 12 6 7 18 27 26 26 31 32 28 20 6 327 219 202 196 194 194 195 195 190 187 190 187 185 187 185 181 184 186 185 187 189 188 189 186 182 185 190 192 195 197 197 200 204 205 203 200 199 198 199 200 199 198 200 201 203 201 199 204 217 229 238 245 254 264 271 277
65 63 61 61 59 56 51 43 40 41 39 35 30 18 13 25 32 28 17 10 19 30 28 26 33 40 43 42 39 36 39 189 187 181 178 182 187 185 183 184 183 182 184 183 179 181 182 181 182 184 184 185 183 178 179 183 185 187 191 197 203 207 209 204 199 196 191 188 191 194 195 197 199 202 202 204 217 231 238 245 250 254 260 267 274
69 67 65 64 61 56 50 45 44 45 44 40 35 27 27 34 35 34 33 27 26 30 30 30 37 45 53 57 58 58 58 67 121 160 161 163 170 173 171 175 178 179 181 181 178 178 178 176 177 179 179 179 178 175 172 174 178 178 182 192 197 201 204 199 188 183 181 178 183 196 206 216 216 210 211 217 224 230 236 243 249 253 259 266 272
75 73 69 65 60 56 53 51 48 46 44 44 42 38 39 42 38 36 39 37 33 31 32 35 39 45 56 64 65 65 68 70 71 81 116 139 152 159 162 174 187 185 179 176 175 176 175 172 172 174 175 175 174 173 172 172 177 181 185 194 197 198 204 206 197 192 202 223 243 247 261 274 267 246 235 235 237 239 241 246 250 255 260 264 268
81 77 72 69 66 63 61 59 55 51 47 46 47 48 49 49 46 44 42 37 34 35 36 39 43 45 53 66 72 73 76 80 77 70 73 93 119 137 147 158 171 174 170 162 157 158 159 156 157 161 164 166 167 170 173 173 177 185 193 204 214 221 227 233 237 233 234 244 254 259 267 271 265 257 252 252 255 256 258 259 261 264 265 267 270
78 74 71 71 70 66 62 58 55 54 52 50 50 53 56 58 57 56 52 47 45 44 43 44 48 50 50 57 71 84 89 92 91 85 77 81 91 104 117 128 139 150 157 152 143 145 146 144 149 155 158 162 167 172 178 181 184 191 200 211 225 236 240 242 241 236 234 237 241 247 251 250 247 249 253 258 264 267 269 271 272 272 272 272 273
76 74 73 71 71 69 65 62 58 55 54 52 50 53 58 62 62 61 61 61 60 58 55 51 50 52 54 52 56 71 89 98 102 106 109 107 107 108 107 104 107 124 139 140 139 149 157 159 163 163 160 165 171 173 181 191 196 203 212 220 224 227 227 226 222 219 220 224 228 233 237 239 243 250 255 259 263 265 267 268 269 270 272 271 270
76 76 72 68 68 68 64 62 63 63 61 57 51 50 54 58 58 57 60 65 66 65 63 59 54 52 52 51 51 56 64 75 91 109 125 127 132 145 144 136 130 119 112 110 112 118 125 133 142 143 144 156 168 177 192 206 210 212 216 220 221 220 218 219 221 224 228 231 234 238 241 245 249 251 253 254 256 256 257 259 260 263 263 260 259
78 76 72 69 67 64 58 56 58 62 62 59 54 49 48 48 50 53 57 62 68 68 66 63 59 55 52 51 52 54 58 64 71 83 100 110 117 130 131 123 118 111 103 104 110 111 111 116 122 123 128 145 169 190 205 210 211 213 212 212 213 215 217 222 227 230 234 236 238 239 241 242 244 244 245 245 243 241 242 245 246 248 250 254 259
71 68 68 68 65 62 58 56 56 57 56 54 51 49 47 45 44 46 50 58 65 69 69 67 63 59 55 53 52 52 56 62 69 74 84 93 97 102 104 99 93 92 95 98 100 99 97 98 101 101 100 105 112 123 160 186 197 209 214 213 212 214 219 226 230 232 233 233 232 231 229 229 229 227 223 222 220 217 219 226 234 242 250 258 265
63 60 60 61 60 59 56 55 54 52 51 49 48 47 46 47 47 43 35 41 53 60 66 71 70 65 61 57 55 54 54 57 64 72 80 86 89 96 103 101 95 92 91 91 92 92 88 82 81 82 83 86 90 89 93 133 167 196 204 200 200 202 206 212 217 218 217 214 212 211 207 204 205 205 203 203 204 208 216 227 237 246 257 268 278
68 63 58 55 54 50 46 46 46 46 50 53 50 43 40 42 46 44 39 38 41 42 49 61 70 72 67 60 58 58 57 57 62 69 75 81 84 88 94 101 105 104 99 92 89 87 82 76 74 74 70 62 57 56 67 100 143 170 176 173 174 176 179 183 190 194 196 194 190 189 189 189 194 199 203 207 212 222 235 248 260 274 287 294 298
82 77 72 67 60 52 46 45 43 43 48 52 47 39 33 32 37 39 38 40 42 39 37 40 50 63 68 63 59 58 57 57 59 62 66 72 78 81 83 87 96 102 105 107 106 99 89 66 42 34 29 21 27 57 87 114 137 150 154 156 158 161 165 172 176 179 186 188 187 186 187 189 196 206 214 221 229 238 249 261 273 283 290 295 299
88 85 81 74 66 55 46 43 41 42 46 49 46 38 31 28 33 38 37 37 39 39 36 32 31 35 42 50 55 57 55 54 55 56 57 61 68 76 79 78 78 80 86 94 101 105 108 106 77 31 31 45 70 92 108 120 127 132 141 153 159 161 165 172 176 178 186 194 197 200 203 204 210 219 226 232 239 245 253 264 277 288 296 304 311